Location: Belfast
(54.5830°N, 5.9330°W)
Time: 22:16:38
(UTC+01:00)

ISS - Visible Passes

Search period start: 19 September 2018 00:00
Search period end: 29 September 2018 00:00
Orbit: 402 x 408 km, 51.6° (Epoch: 20 September)

Date Brightness Start Highest point End Pass type
(mag) Time Alt. Az. Time Alt. Az. Time Alt. Az.
23 Sep -1.2 21:44:14 10° SW 21:44:36 12° SW 21:44:36 12° SW visible
24 Sep -2.3 20:52:43 10° SSW 20:55:01 21° SSE 20:55:01 21° SSE visible
25 Sep -1.8 20:01:29 10° S 20:03:28 15° SE 20:05:17 11° ESE visible
25 Sep -2.1 21:36:16 10° SW 21:37:58 25° SW 21:37:58 25° SW visible
26 Sep -2.9 20:44:30 10° SW 20:47:28 31° SSE 20:48:06 28° SE visible
26 Sep -0.9 22:20:25 10° WSW 22:20:47 12° WSW 22:20:47 12° WSW visible
27 Sep -2.4 19:52:51 10° SSW 19:55:33 24° SSE 19:58:09 11° E visible
27 Sep -2.8 21:28:26 10° WSW 21:30:49 37° SW 21:30:49 37° SW visible
28 Sep -3.2 20:36:31 10° WSW 20:39:39 42° SSE 20:40:47 30° ESE visible
28 Sep -1.1 22:12:42 10° W 22:13:27 16° WSW 22:13:27 16° WSW visible
